Location: Newark
(41.0833°N, 9.3833°E)
Time: 12:54:54
(UTC+00:00)

Hubble Space Telescope - Pass Details

Date: 10 April 2020
Orbit: 536 x 540 km, 28.5° (Epoch: 01 June)

Event Time Altitude Azimuth Distance (km) Brightness Sun altitude
Rises 18:43:11 0° 234° (SW) 2,665 4.8 -9.1°
Reaches altitude 10° 18:46:23 10° 208° (SSW) 1,776 3.5 -9.7°
Maximum altitude 18:48:30 14° 177° (S) 1,548 2.9 -10.1°
Drops below altitude 10° 18:50:37 10° 146° (SE) 1,776 2.9 -10.4°
Enters shadow 18:50:41 10° 145° (SE) 1,788 2.9 -10.4°
